Forside
METAR-TAF:

METAR-TAF

Lufthavne :

Marshalltown Municipal Airport

Marshalltown, Iowa, USA

Breddekreds: 42-06-38N, længdekreds: 092-54-58W, højde: 296 m

Aktuelle vejr

Denne rapport blev lavet for 37 minutter siden, kl. 06:53 UTC
Vind 4 kt fra sydvest
Temperatur 1°C
Fugtighed 86%
Tryk 1015 hPa
Sigt: 16.1 km
skyfri

METAR: KMIW 290653Z AUTO 23004KT 10SM CLR 01/M01 A2997 RMK AO2 SLP153 T00111011

Tid: 01:30 (07:30 UTC)


TAF: fraværende

Vejrobservationer og prognoser fra mere end 4000 lufthavne (METAR og TAF).

De gule og røde prikker repræsenterer de meteorologiske stationer.

Flyt musen over at se navnet på stationen.

Så klik over at se vejr observationer og prognoser.

At skifte det kort: Klik på de grønne knapper med et sort kors for at zoome ind; på den grønne knap med en bindestreg for at zoome ud; eller på de grønne pile for tilstødende kort.


METAR-TAF: